Weather History for Mosby, MO

Change the Weather History Date:

Sunday, November 18, 2012

  Actual Average (KMKC) Record (KMKC)
Temperature  
Mean Temperature 46 °F -  
Max Temperature 60 °F 52 °F 77 °F (1999)
Min Temperature 33 °F 35 °F 24 °F (2000)
Degree Days  
Heating Degree Days 18    
Moisture  
Dew Point 33 °F    
Average Humidity 57    
Maximum Humidity 93    
Minimum Humidity 36    
Precipitation  
Precipitation 0.00 in - - ()
Sea Level Pressure  
Sea Level Pressure 30.23 in    
Wind  
Wind Speed 4 mph ()    
Max Wind Speed 16 mph    
Max Gust Speed 18 mph    
Visibility 10.0 miles    
Events Rain    
Averages and records for this station are not official NWS values.
T = Trace of Precipitation, MM = Missing Value Source: Averaged Metar Reports

Daily Weather History Graph

Daily Weather History Graph

Search for Another Location

Airport:

Trip Planner

Search our weather history database for the weather conditions in past years. The results will help you decide how hot, cold, wet, or windy it might be!

Date:

Astronomy

Nov. 18, 2012 Rise Set
Actual Time 7:04 AM CST 4:59 PM CST
Civil Twilight 6:35 AM CST 5:28 PM CST
Nautical Twilight 6:03 AM CST 6:01 PM CST
Astronomical Twilight 5:31 AM CST 6:33 PM CST
Moon 11:32 AM CST (11/18) 10:19 PM CST (11/18)
Length of Visible Light 10h 52m
Length of Day
9h 55m
Waxing Crescent, 30% of the Moon is Illuminated
Nov 18
Waxing Crescent
Nov 20
First Quarter
Nov 28
Full
Dec 6
Last Quarter
Dec 13
New

Hourly Weather History & Observations

Time (CST) Temp. Windchill Dew Point Humidity Pressure Visibility Wind Dir Wind Speed Gust Speed Precip Events Conditions
12:15 AM 39.2 °F - 32.0 °F 75% 30.29 in 10.0 mi Calm Calm - N/A   Clear
12:35 AM 41.0 °F - 32.0 °F 70% 30.28 in 10.0 mi Calm Calm - N/A   Clear
12:55 AM 39.2 °F - 32.0 °F 75% 30.29 in 10.0 mi Calm Calm - N/A   Clear
1:15 AM 39.2 °F - 32.0 °F 75% 30.29 in 10.0 mi Calm Calm - N/A   Clear
1:35 AM 41.0 °F 39.0 °F 32.0 °F 70% 30.29 in 10.0 mi ESE 3.5 mph - N/A   Clear
1:55 AM 39.2 °F 37.0 °F 32.0 °F 75% 30.29 in 10.0 mi SE 3.5 mph - N/A   Clear
2:15 AM 35.6 °F 32.8 °F 32.0 °F 87% 30.29 in 10.0 mi SE 3.5 mph - N/A   Clear
2:35 AM 35.6 °F - 32.0 °F 87% 30.29 in 10.0 mi Calm Calm - N/A   Clear
2:55 AM 33.8 °F - 30.2 °F 87% 30.29 in 10.0 mi Calm Calm - N/A   Clear
3:15 AM 33.8 °F - 32.0 °F 93% 30.28 in 10.0 mi Calm Calm - N/A   Clear
3:35 AM 35.6 °F - 32.0 °F 87% 30.28 in 10.0 mi Calm Calm - N/A   Clear
4:15 AM 35.6 °F 32.8 °F 32.0 °F 87% 30.27 in 10.0 mi SE 3.5 mph - N/A   Clear
4:35 AM 37.4 °F 34.9 °F 32.0 °F 81% 30.27 in 10.0 mi ESE 3.5 mph - N/A   Clear
4:55 AM 37.4 °F 34.9 °F 32.0 °F 81% 30.27 in 10.0 mi SE 3.5 mph - N/A   Clear
5:15 AM 39.2 °F 37.0 °F 32.0 °F 75% 30.27 in 10.0 mi ESE 3.5 mph - N/A   Clear
5:35 AM 39.2 °F 35.9 °F 32.0 °F 75% 30.27 in 10.0 mi ESE 4.6 mph - N/A   Clear
5:55 AM 39.2 °F 35.9 °F 32.0 °F 75% 30.27 in 10.0 mi ESE 4.6 mph - N/A   Clear
6:15 AM 39.2 °F 35.9 °F 32.0 °F 75% 30.27 in 10.0 mi ESE 4.6 mph - N/A   Clear
6:35 AM 37.4 °F 33.8 °F 32.0 °F 81% 30.27 in 10.0 mi SE 4.6 mph - N/A   Clear
6:55 AM 37.4 °F 34.9 °F 32.0 °F 81% 30.27 in 10.0 mi ESE 3.5 mph - N/A   Clear
7:15 AM 37.4 °F 33.8 °F 32.0 °F 81% 30.27 in 10.0 mi SE 4.6 mph - N/A   Clear
7:35 AM 37.4 °F 34.9 °F 32.0 °F 81% 30.27 in 10.0 mi SE 3.5 mph - N/A   Clear
7:55 AM 39.2 °F 35.0 °F 32.0 °F 75% 30.27 in 10.0 mi ESE 5.8 mph - N/A   Clear
8:15 AM 41.0 °F 38.0 °F 32.0 °F 70% 30.27 in 10.0 mi ESE 4.6 mph - N/A   Clear
8:35 AM 41.0 °F 37.1 °F 32.0 °F 70% 30.27 in 10.0 mi SE 5.8 mph - N/A   Clear
8:55 AM 42.8 °F 40.1 °F 32.0 °F 66% 30.27 in 10.0 mi SE 4.6 mph - N/A   Clear
9:15 AM 44.6 °F 40.2 °F 32.0 °F 61% 30.28 in 10.0 mi SSE 8.1 mph - N/A   Clear
9:35 AM 46.4 °F 42.9 °F 32.0 °F 57% 30.27 in 10.0 mi SSE 6.9 mph - N/A   Clear
9:55 AM 46.4 °F 41.9 °F 32.0 °F 57% 30.27 in 10.0 mi SSE 9.2 mph - N/A   Clear
10:15 AM 50.0 °F - 33.8 °F 54% 30.27 in 10.0 mi SSE 8.1 mph - N/A   Clear
10:35 AM 51.8 °F - 33.8 °F 50% 30.27 in 10.0 mi SSE 9.2 mph - N/A   Clear
10:55 AM 53.6 °F - 32.0 °F 44% 30.26 in 10.0 mi SSE 9.2 mph - N/A   Clear
11:15 AM 55.4 °F - 33.8 °F 44% 30.25 in 10.0 mi South 9.2 mph - N/A   Clear
11:35 AM 57.2 °F - 32.0 °F 38% 30.25 in 10.0 mi South 12.7 mph 16.1 mph N/A   Clear
11:55 AM 59.0 °F - 33.8 °F 39% 30.23 in 10.0 mi South 11.5 mph - N/A   Clear
12:15 PM 59.0 °F - 33.8 °F 39% 30.22 in 10.0 mi South 16.1 mph - N/A   Clear
12:35 PM 59.0 °F - 33.8 °F 39% 30.22 in 10.0 mi SSE 10.4 mph - N/A   Clear
1:15 PM 60.8 °F - 33.8 °F 36% 30.20 in 10.0 mi SSW 10.4 mph - N/A   Clear
1:35 PM 60.8 °F - 33.8 °F 36% 30.19 in 10.0 mi SSE 10.4 mph 17.3 mph N/A   Clear
1:55 PM 60.8 °F - 33.8 °F 36% 30.18 in 10.0 mi South 9.2 mph - N/A   Clear
2:15 PM 60.8 °F - 33.8 °F 36% 30.18 in 10.0 mi South 13.8 mph 18.4 mph N/A   Clear
2:35 PM 60.8 °F - 35.6 °F 39% 30.17 in 10.0 mi SSE 10.4 mph - N/A   Clear
2:55 PM 60.8 °F - 33.8 °F 36% 30.17 in 10.0 mi South 9.2 mph 17.3 mph N/A   Clear
3:15 PM 60.8 °F - 33.8 °F 36% 30.15 in 10.0 mi SE 9.2 mph - N/A   Clear
3:35 PM 60.8 °F - 33.8 °F 36% 30.15 in 10.0 mi SE 9.2 mph - N/A   Clear
3:55 PM 60.8 °F - 33.8 °F 36% 30.17 in 10.0 mi SSE 6.9 mph - N/A   Clear
4:15 PM 59.0 °F - 35.6 °F 42% 30.15 in 10.0 mi SE 5.8 mph - N/A   Clear
4:35 PM 59.0 °F - 35.6 °F 42% 30.16 in 10.0 mi SE 4.6 mph - N/A   Clear
4:55 PM 59.0 °F - 35.6 °F 42% 30.17 in 10.0 mi SE 3.5 mph - N/A   Clear
5:15 PM 57.2 °F - 35.6 °F 44% 30.17 in 10.0 mi SE 4.6 mph - N/A   Clear
5:35 PM 57.2 °F - 35.6 °F 44% 30.17 in 10.0 mi SE 5.8 mph - N/A   Clear
6:35 PM 55.4 °F - 33.8 °F 44% 30.17 in 10.0 mi SE 3.5 mph - N/A   Clear
6:55 PM 55.4 °F - 33.8 °F 44% 30.17 in 10.0 mi SE 4.6 mph - N/A   Clear
7:15 PM 55.4 °F - 33.8 °F 44% 30.17 in 10.0 mi SE 4.6 mph - N/A   Clear
7:35 PM 55.4 °F - 33.8 °F 44% 30.18 in 10.0 mi ESE 3.5 mph - N/A   Clear
7:55 PM 53.6 °F - 33.8 °F 47% 30.18 in 10.0 mi SE 4.6 mph - N/A   Mostly Cloudy
8:15 PM 55.4 °F - 33.8 °F 44% 30.17 in 10.0 mi SE 6.9 mph - N/A   Overcast
8:35 PM 55.4 °F - 33.8 °F 44% 30.17 in 10.0 mi ESE 5.8 mph - N/A   Mostly Cloudy
8:55 PM 55.4 °F - 33.8 °F 44% 30.17 in 10.0 mi ESE 5.8 mph - N/A   Overcast
9:15 PM 55.4 °F - 33.8 °F 44% 30.17 in 10.0 mi SE 8.1 mph - N/A   Overcast
9:35 PM 55.4 °F - 32.0 °F 41% 30.17 in 10.0 mi SE 6.9 mph - N/A   Overcast
9:55 PM 55.4 °F - 32.0 °F 41% 30.17 in 10.0 mi SE 9.2 mph - N/A   Overcast
10:15 PM 55.4 °F - 32.0 °F 41% 30.16 in 10.0 mi SE 6.9 mph - N/A   Overcast
10:35 PM 55.4 °F - 33.8 °F 44% 30.17 in 10.0 mi SSE 5.8 mph - N/A Rain Light Rain
10:55 PM 53.6 °F - 35.6 °F 51% 30.17 in 10.0 mi SE 4.6 mph - N/A   Overcast
11:15 PM 53.6 °F - 35.6 °F 51% 30.17 in 10.0 mi SSE 6.9 mph - N/A   Overcast
11:35 PM 53.6 °F - 35.6 °F 51% 30.16 in 10.0 mi SE 6.9 mph - N/A   Overcast